owner,sensor,date,latitude,longitude,vertical_datum,wind_speed,wind_to_direction,wind_speed_of_gust,qcFlag 
DISL,ioos:station:DISL:KATA:1,2015-03-01T00:00:00Z,30.2583,-88.2131,0.0,7.13,121.1,-9999.0,'1111122,1111122,1111122' 
DISL,ioos:station:DISL:KATA:1,2015-03-01T00:30:00Z,30.2583,-88.2131,0.0,7.13,122.2,-9999.0,'1111122,1111122,1111122' 
DISL,ioos:station:DISL:KATA:1,2015-03-01T01:00:00Z,30.2583,-88.2131,0.0,6.95,119.8,-9999.0,'1111122,1111122,1111122' 
DISL,ioos:station:DISL:KATA:1,2015-03-01T01:30:00Z,30.2583,-88.2131,0.0,6.28,119.2,-9999.0,'1111122,1111122,1111122' 
DISL,ioos:station:DISL:KATA:1,2015-03-01T02:00:00Z,30.2583,-88.2131,0.0,6.54,118.5,-9999.0,'1111122,1111122,1111122' 
DISL,ioos:station:DISL:KATA:1,2015-03-01T02:30:00Z,30.2583,-88.2131,0.0,7.17,113.0,-9999.0,'1111122,1111122,1111122' 
DISL,ioos:station:DISL:KATA:1,2015-03-01T03:00:00Z,30.2583,-88.2131,0.0,5.63,107.0,-9999.0,'1111122,1111122,1111122' 
DISL,ioos:station:DISL:KATA:1,2015-03-01T03:30:00Z,30.2583,-88.2131,0.0,6.97,94.0,-9999.0,'1111122,1111122,1111122' 
DISL,ioos:station:DISL:KATA:1,2015-03-01T04:00:00Z,30.2583,-88.2131,0.0,6.24,85.3,-9999.0,'1111122,1111122,1111122' 
DISL,ioos:station:DISL:KATA:1,2015-03-01T04:30:00Z,30.2583,-88.2131,0.0,7.07,86.7,-9999.0,'1111122,1111122,1111122' 
DISL,ioos:station:DISL:KATA:1,2015-03-01T05:00:00Z,30.2583,-88.2131,0.0,8.08,89.8,-9999.0,'1111122,1111122,1111122' 
DISL,ioos:station:DISL:KATA:1,2015-03-01T05:30:00Z,30.2583,-88.2131,0.0,7.52,87.0,-9999.0,'1111122,1111122,1111122' 
DISL,ioos:station:DISL:KATA:1,2015-03-01T06:00:00Z,30.2583,-88.2131,0.0,9.27,91.3,-9999.0,'1111122,1111122,1111122' 
DISL,ioos:station:DISL:KATA:1,2015-03-01T06:30:00Z,30.2583,-88.2131,0.0,8.05,86.9,-9999.0,'1111122,1111122,1111122' 
DISL,ioos:station:DISL:KATA:1,2015-03-01T07:00:00Z,30.2583,-88.2131,0.0,8.35,84.3,-9999.0,'1111122,1111122,1111122' 
DISL,ioos:station:DISL:KATA:1,2015-03-01T07:30:00Z,30.2583,-88.2131,0.0,7.99,82.2,-9999.0,'1111122,1111122,1111122' 
DISL,ioos:station:DISL:KATA:1,2015-03-01T08:00:00Z,30.2583,-88.2131,0.0,7.87,74.64,-9999.0,'1111122,1111122,1111122' 
DISL,ioos:station:DISL:KATA:1,2015-03-01T08:30:00Z,30.2583,-88.2131,0.0,8.37,77.69,-9999.0,'1111122,1111122,1111122' 
DISL,ioos:station:DISL:KATA:1,2015-03-01T09:00:00Z,30.2583,-88.2131,0.0,7.46,73.84,-9999.0,'1111122,1111122,1111122' 
DISL,ioos:station:DISL:KATA:1,2015-03-01T09:30:00Z,30.2583,-88.2131,0.0,7.4,80.8,-9999.0,'1111122,1111122,1111122' 
DISL,ioos:station:DISL:KATA:1,2015-03-01T10:00:00Z,30.2583,-88.2131,0.0,7.52,76.35,-9999.0,'1111122,1111122,1111122' 
DISL,ioos:station:DISL:KATA:1,2015-03-01T10:30:00Z,30.2583,-88.2131,0.0,8.89,89.8,-9999.0,'1111122,1111122,1111122' 
DISL,ioos:station:DISL:KATA:1,2015-03-01T11:00:00Z,30.2583,-88.2131,0.0,8.82,90.2,-9999.0,'1111122,1111122,1111122' 
DISL,ioos:station:DISL:KATA:1,2015-03-01T11:30:00Z,30.2583,-88.2131,0.0,7.51,80.0,-9999.0,'1111122,1111122,1111122' 
DISL,ioos:station:DISL:KATA:1,2015-03-01T12:00:00Z,30.2583,-88.2131,0.0,9.83,83.2,-9999.0,'1111122,1111122,1111122' 
DISL,ioos:station:DISL:KATA:1,2015-03-01T12:30:00Z,30.2583,-88.2131,0.0,8.96,83.9,-9999.0,'1111122,1111122,1111122' 
DISL,ioos:station:DISL:KATA:1,2015-03-01T13:00:00Z,30.2583,-88.2131,0.0,7.61,69.77,-9999.0,'1111122,1111122,1111122' 
DISL,ioos:station:DISL:KATA:1,2015-03-01T13:30:00Z,30.2583,-88.2131,0.0,7.28,74.2,-9999.0,'1111122,1111122,1111122' 
DISL,ioos:station:DISL:KATA:1,2015-03-01T14:00:00Z,30.2583,-88.2131,0.0,7.69,77.97,-9999.0,'1111122,1111122,1111122' 
DISL,ioos:station:DISL:KATA:1,2015-03-01T14:30:00Z,30.2583,-88.2131,0.0,7.52,72.75,-9999.0,'1111122,1111122,1111122' 
DISL,ioos:station:DISL:KATA:1,2015-03-01T15:00:00Z,30.2583,-88.2131,0.0,8.11,70.45,-9999.0,'1111122,1111122,1111122' 
DISL,ioos:station:DISL:KATA:1,2015-03-01T15:30:00Z,30.2583,-88.2131,0.0,7.55,80.7,-9999.0,'1111122,1111122,1111122' 
DISL,ioos:station:DISL:KATA:1,2015-03-01T16:00:00Z,30.2583,-88.2131,0.0,6.85,73.35,-9999.0,'1111122,1111122,1111122' 
DISL,ioos:station:DISL:KATA:1,2015-03-01T16:30:00Z,30.2583,-88.2131,0.0,7.18,68.95,-9999.0,'1111122,1111122,1111122' 
DISL,ioos:station:DISL:KATA:1,2015-03-01T17:00:00Z,30.2583,-88.2131,0.0,7.71,67.48,-9999.0,'1111122,1111122,1111122' 
DISL,ioos:station:DISL:KATA:1,2015-03-01T17:30:00Z,30.2583,-88.2131,0.0,6.2,66.39,-9999.0,'1111122,1111122,1111122' 
DISL,ioos:station:DISL:KATA:1,2015-03-01T18:00:00Z,30.2583,-88.2131,0.0,6.05,71.16,-9999.0,'1111122,1111122,1111122' 
DISL,ioos:station:DISL:KATA:1,2015-03-01T18:30:00Z,30.2583,-88.2131,0.0,5.92,64.08,-9999.0,'1111122,1111122,1111122' 
DISL,ioos:station:DISL:KATA:1,2015-03-01T19:00:00Z,30.2583,-88.2131,0.0,6.77,59.57,-9999.0,'1111122,1111122,1111122' 
DISL,ioos:station:DISL:KATA:1,2015-03-01T19:30:00Z,30.2583,-88.2131,0.0,5.51,62.11,-9999.0,'1111122,1111122,1111122' 
DISL,ioos:station:DISL:KATA:1,2015-03-01T20:00:00Z,30.2583,-88.2131,0.0,6.16,66.0,-9999.0,'1111122,1111122,1111122' 
DISL,ioos:station:DISL:KATA:1,2015-03-01T20:30:00Z,30.2583,-88.2131,0.0,5.61,62.47,-9999.0,'1111122,1111122,1111122' 
DISL,ioos:station:DISL:KATA:1,2015-03-01T21:00:00Z,30.2583,-88.2131,0.0,5.76,59.4,-9999.0,'1111122,1111122,1111122' 
DISL,ioos:station:DISL:KATA:1,2015-03-01T21:30:00Z,30.2583,-88.2131,0.0,5.98,63.27,-9999.0,'1111122,1111122,1111122' 
DISL,ioos:station:DISL:KATA:1,2015-03-01T22:00:00Z,30.2583,-88.2131,0.0,7.02,70.69,-9999.0,'1111122,1111122,1111122' 
DISL,ioos:station:DISL:KATA:1,2015-03-01T22:30:00Z,30.2583,-88.2131,0.0,6.12,69.09,-9999.0,'1111122,1111122,1111122' 
DISL,ioos:station:DISL:KATA:1,2015-03-01T23:00:00Z,30.2583,-88.2131,0.0,5.1,67.64,-9999.0,'1111122,1111122,1111122' 
DISL,ioos:station:DISL:KATA:1,2015-03-01T23:30:00Z,30.2583,-88.2131,0.0,5.17,65.45,-9999.0,'1111122,1111122,1111122' 
DISL,ioos:station:DISL:KATA:1,2015-03-02T00:00:00Z,30.2583,-88.2131,0.0,4.67,71.43,-9999.0,'1111122,1111122,1111122' 
DISL,ioos:station:DISL:KATA:1,2015-03-02T00:30:00Z,30.2583,-88.2131,0.0,4.87,75.98,-9999.0,'1111122,1111122,1111122' 
DISL,ioos:station:DISL:KATA:1,2015-03-02T01:00:00Z,30.2583,-88.2131,0.0,4.91,75.5,-9999.0,'1111122,1111122,1111122' 
DISL,ioos:station:DISL:KATA:1,2015-03-02T01:30:00Z,30.2583,-88.2131,0.0,4.34,72.01,-9999.0,'1111122,1111122,1111122' 
DISL,ioos:station:DISL:KATA:1,2015-03-02T02:00:00Z,30.2583,-88.2131,0.0,5.2,67.88,-9999.0,'1111122,1111122,1111122' 
DISL,ioos:station:DISL:KATA:1,2015-03-02T02:30:00Z,30.2583,-88.2131,0.0,5.62,58.13,-9999.0,'1111122,1111122,1111122' 
DISL,ioos:station:DISL:KATA:1,2015-03-02T03:00:00Z,30.2583,-88.2131,0.0,6.66,59.23,-9999.0,'1111122,1111122,1111122' 
DISL,ioos:station:DISL:KATA:1,2015-03-02T03:30:00Z,30.2583,-88.2131,0.0,6.94,66.01,-9999.0,'1111122,1111122,1111122' 
DISL,ioos:station:DISL:KATA:1,2015-03-02T04:00:00Z,30.2583,-88.2131,0.0,6.23,67.84,-9999.0,'1111122,1111122,1111122' 
DISL,ioos:station:DISL:KATA:1,2015-03-02T04:30:00Z,30.2583,-88.2131,0.0,6.79,62.26,-9999.0,'1111122,1111122,1111122' 
DISL,ioos:station:DISL:KATA:1,2015-03-02T05:00:00Z,30.2583,-88.2131,0.0,7.29,58.12,-9999.0,'1111122,1111122,1111122' 
DISL,ioos:station:DISL:KATA:1,2015-03-02T05:30:00Z,30.2583,-88.2131,0.0,7.45,60.48,-9999.0,'1111122,1111122,1111122' 
DISL,ioos:station:DISL:KATA:1,2015-03-02T06:00:00Z,30.2583,-88.2131,0.0,7.24,55.22,-9999.0,'1111122,1111122,1111122' 
DISL,ioos:station:DISL:KATA:1,2015-03-02T06:30:00Z,30.2583,-88.2131,0.0,6.62,60.03,-9999.0,'1111122,1111122,1111122' 
DISL,ioos:station:DISL:KATA:1,2015-03-02T07:00:00Z,30.2583,-88.2131,0.0,5.69,76.65,-9999.0,'1111122,1111122,1111122' 
DISL,ioos:station:DISL:KATA:1,2015-03-02T07:30:00Z,30.2583,-88.2131,0.0,4.16,89.2,-9999.0,'1111122,1111122,1111122' 
DISL,ioos:station:DISL:KATA:1,2015-03-02T08:00:00Z,30.2583,-88.2131,0.0,5.58,86.4,-9999.0,'1111122,1111122,1111122' 
DISL,ioos:station:DISL:KATA:1,2015-03-02T08:30:00Z,30.2583,-88.2131,0.0,6.03,117.6,-9999.0,'1111122,1111122,1111122' 
DISL,ioos:station:DISL:KATA:1,2015-03-02T09:00:00Z,30.2583,-88.2131,0.0,7.32,121.3,-9999.0,'1111122,1111122,1111122' 
DISL,ioos:station:DISL:KATA:1,2015-03-02T09:30:00Z,30.2583,-88.2131,0.0,8.42,137.8,-9999.0,'1111122,1111122,1111122' 
DISL,ioos:station:DISL:KATA:1,2015-03-02T10:00:00Z,30.2583,-88.2131,0.0,7.22,139.2,-9999.0,'1111122,1111122,1111122' 
DISL,ioos:station:DISL:KATA:1,2015-03-02T10:30:00Z,30.2583,-88.2131,0.0,7.23,136.5,-9999.0,'1111122,1111122,1111122' 
DISL,ioos:station:DISL:KATA:1,2015-03-02T11:00:00Z,30.2583,-88.2131,0.0,6.16,127.3,-9999.0,'1111122,1111122,1111122' 
DISL,ioos:station:DISL:KATA:1,2015-03-02T11:30:00Z,30.2583,-88.2131,0.0,2.7,122.6,-9999.0,'1111122,1111122,1111122' 
DISL,ioos:station:DISL:KATA:1,2015-03-02T12:00:00Z,30.2583,-88.2131,0.0,2.53,74.66,-9999.0,'1111122,1111122,1111122' 
DISL,ioos:station:DISL:KATA:1,2015-03-02T12:30:00Z,30.2583,-88.2131,0.0,3.02,92.2,-9999.0,'1111122,1111122,1111122' 
DISL,ioos:station:DISL:KATA:1,2015-03-02T13:00:00Z,30.2583,-88.2131,0.0,4.87,64.71,-9999.0,'1111122,1111122,1111122' 
DISL,ioos:station:DISL:KATA:1,2015-03-02T13:30:00Z,30.2583,-88.2131,0.0,4.35,87.9,-9999.0,'1111122,1111122,1111122' 
DISL,ioos:station:DISL:KATA:1,2015-03-02T14:00:00Z,30.2583,-88.2131,0.0,5.24,86.3,-9999.0,'1111122,1111122,1111122' 
DISL,ioos:station:DISL:KATA:1,2015-03-02T14:30:00Z,30.2583,-88.2131,0.0,4.37,74.71,-9999.0,'1111122,1111122,1111122' 
DISL,ioos:station:DISL:KATA:1,2015-03-02T15:00:00Z,30.2583,-88.2131,0.0,5.3,82.9,-9999.0,'1111122,1111122,1111122' 
DISL,ioos:station:DISL:KATA:1,2015-03-02T15:30:00Z,30.2583,-88.2131,0.0,4.72,79.72,-9999.0,'1111122,1111122,1111122' 
DISL,ioos:station:DISL:KATA:1,2015-03-02T16:00:00Z,30.2583,-88.2131,0.0,4.86,75.78,-9999.0,'1111122,1111122,1111122' 
DISL,ioos:station:DISL:KATA:1,2015-03-02T16:30:00Z,30.2583,-88.2131,0.0,4.71,80.8,-9999.0,'1111122,1111122,1111122' 
DISL,ioos:station:DISL:KATA:1,2015-03-02T17:00:00Z,30.2583,-88.2131,0.0,5.33,90.9,-9999.0,'1111122,1111122,1111122' 
DISL,ioos:station:DISL:KATA:1,2015-03-02T17:30:00Z,30.2583,-88.2131,0.0,4.8,82.7,-9999.0,'1111122,1111122,1111122' 
DISL,ioos:station:DISL:KATA:1,2015-03-02T18:00:00Z,30.2583,-88.2131,0.0,4.6,99.0,-9999.0,'1111122,1111122,1111122' 
DISL,ioos:station:DISL:KATA:1,2015-03-02T18:30:00Z,30.2583,-88.2131,0.0,6.17,109.6,-9999.0,'1111122,1111122,1111122' 
DISL,ioos:station:DISL:KATA:1,2015-03-02T19:00:00Z,30.2583,-88.2131,0.0,6.38,113.8,-9999.0,'1111122,1111122,1111122' 
DISL,ioos:station:DISL:KATA:1,2015-03-02T19:30:00Z,30.2583,-88.2131,0.0,6.78,118.2,-9999.0,'1111122,1111122,1111122' 
DISL,ioos:station:DISL:KATA:1,2015-03-02T20:00:00Z,30.2583,-88.2131,0.0,5.39,108.2,-9999.0,'1111122,1111122,1111122' 
DISL,ioos:station:DISL:KATA:1,2015-03-02T20:30:00Z,30.2583,-88.2131,0.0,3.94,107.3,-9999.0,'1111122,1111122,1111122' 
DISL,ioos:station:DISL:KATA:1,2015-03-02T21:00:00Z,30.2583,-88.2131,0.0,4.97,117.2,-9999.0,'1111122,1111122,1111122' 
DISL,ioos:station:DISL:KATA:1,2015-03-02T21:30:00Z,30.2583,-88.2131,0.0,5.28,115.8,-9999.0,'1111122,1111122,1111122' 
DISL,ioos:station:DISL:KATA:1,2015-03-02T22:00:00Z,30.2583,-88.2131,0.0,4.97,114.5,-9999.0,'1111122,1111122,1111122' 
DISL,ioos:station:DISL:KATA:1,2015-03-02T22:30:00Z,30.2583,-88.2131,0.0,5.4,122.5,-9999.0,'1111122,1111122,1111122' 
DISL,ioos:station:DISL:KATA:1,2015-03-02T23:00:00Z,30.2583,-88.2131,0.0,5.87,130.5,-9999.0,'1111122,1111122,1111122' 
DISL,ioos:station:DISL:KATA:1,2015-03-02T23:30:00Z,30.2583,-88.2131,0.0,5.14,126.9,-9999.0,'1111122,1111122,1111122' 
DISL,ioos:station:DISL:KATA:1,2015-03-03T00:00:00Z,30.2583,-88.2131,0.0,4.69,124.2,-9999.0,'1111122,1111122,1111122' 
DISL,ioos:station:DISL:KATA:1,2015-03-03T00:30:00Z,30.2583,-88.2131,0.0,5.39,120.0,-9999.0,'1111122,1111122,1111122' 
DISL,ioos:station:DISL:KATA:1,2015-03-03T01:00:00Z,30.2583,-88.2131,0.0,5.33,125.5,-9999.0,'1111122,1111122,1111122' 
DISL,ioos:station:DISL:KATA:1,2015-03-03T01:30:00Z,30.2583,-88.2131,0.0,5.28,124.6,-9999.0,'1111122,1111122,1111122' 
DISL,ioos:station:DISL:KATA:1,2015-03-03T02:00:00Z,30.2583,-88.2131,0.0,4.72,123.7,-9999.0,'1111122,1111122,1111122' 
DISL,ioos:station:DISL:KATA:1,2015-03-03T02:30:00Z,30.2583,-88.2131,0.0,4.94,122.2,-9999.0,'1111122,1111122,1111122' 
DISL,ioos:station:DISL:KATA:1,2015-03-03T03:00:00Z,30.2583,-88.2131,0.0,3.19,109.8,-9999.0,'1111122,1111122,1111122' 
DISL,ioos:station:DISL:KATA:1,2015-03-03T03:30:00Z,30.2583,-88.2131,0.0,4.59,109.2,-9999.0,'1111122,1111122,1111122' 
DISL,ioos:station:DISL:KATA:1,2015-03-03T04:00:00Z,30.2583,-88.2131,0.0,6.45,125.6,-9999.0,'1111122,1111122,1111122' 
DISL,ioos:station:DISL:KATA:1,2015-03-03T04:30:00Z,30.2583,-88.2131,0.0,6.31,125.0,-9999.0,'1111122,1111122,1111122' 
DISL,ioos:station:DISL:KATA:1,2015-03-03T05:00:00Z,30.2583,-88.2131,0.0,5.51,121.5,-9999.0,'1111122,1111122,1111122' 
DISL,ioos:station:DISL:KATA:1,2015-03-03T05:30:00Z,30.2583,-88.2131,0.0,5.83,126.5,-9999.0,'1111122,1111122,1111122' 
DISL,ioos:station:DISL:KATA:1,2015-03-03T06:00:00Z,30.2583,-88.2131,0.0,4.58,129.5,-9999.0,'1111122,1111122,1111122' 
DISL,ioos:station:DISL:KATA:1,2015-03-03T06:30:00Z,30.2583,-88.2131,0.0,5.55,128.0,-9999.0,'1111122,1111122,1111122' 
DISL,ioos:station:DISL:KATA:1,2015-03-03T07:00:00Z,30.2583,-88.2131,0.0,5.53,133.8,-9999.0,'1111122,1111122,1111122' 
DISL,ioos:station:DISL:KATA:1,2015-03-03T07:30:00Z,30.2583,-88.2131,0.0,5.4,134.3,-9999.0,'1111122,1111122,1111122' 
DISL,ioos:station:DISL:KATA:1,2015-03-03T08:00:00Z,30.2583,-88.2131,0.0,4.97,140.7,-9999.0,'1111122,1111122,1111122' 
DISL,ioos:station:DISL:KATA:1,2015-03-03T08:30:00Z,30.2583,-88.2131,0.0,5.13,142.0,-9999.0,'1111122,1111122,1111122' 
DISL,ioos:station:DISL:KATA:1,2015-03-03T09:00:00Z,30.2583,-88.2131,0.0,5.06,140.1,-9999.0,'1111122,1111122,1111122' 
DISL,ioos:station:DISL:KATA:1,2015-03-03T09:30:00Z,30.2583,-88.2131,0.0,4.9,144.7,-9999.0,'1111122,1111122,1111122' 
DISL,ioos:station:DISL:KATA:1,2015-03-03T10:00:00Z,30.2583,-88.2131,0.0,5.17,146.1,-9999.0,'1111122,1111122,1111122' 
DISL,ioos:station:DISL:KATA:1,2015-03-03T10:30:00Z,30.2583,-88.2131,0.0,4.76,138.1,-9999.0,'1111122,1111122,1111122' 
DISL,ioos:station:DISL:KATA:1,2015-03-03T11:00:00Z,30.2583,-88.2131,0.0,5.3,131.8,-9999.0,'1111122,1111122,1111122' 
DISL,ioos:station:DISL:KATA:1,2015-03-03T11:30:00Z,30.2583,-88.2131,0.0,4.28,137.7,-9999.0,'1111122,1111122,1111122' 
DISL,ioos:station:DISL:KATA:1,2015-03-03T12:00:00Z,30.2583,-88.2131,0.0,4.01,135.4,-9999.0,'1111122,1111122,1111122' 
DISL,ioos:station:DISL:KATA:1,2015-03-03T12:30:00Z,30.2583,-88.2131,0.0,4.98,139.1,-9999.0,'1111122,1111122,1111122' 
DISL,ioos:station:DISL:KATA:1,2015-03-03T13:00:00Z,30.2583,-88.2131,0.0,5.09,142.1,-9999.0,'1111122,1111122,1111122' 
DISL,ioos:station:DISL:KATA:1,2015-03-03T13:30:00Z,30.2583,-88.2131,0.0,3.86,137.3,-9999.0,'1111122,1111122,1111122' 
DISL,ioos:station:DISL:KATA:1,2015-03-03T14:00:00Z,30.2583,-88.2131,0.0,4.2,134.3,-9999.0,'1111122,1111122,1111122' 
DISL,ioos:station:DISL:KATA:1,2015-03-03T14:30:00Z,30.2583,-88.2131,0.0,4.07,122.6,-9999.0,'1111122,1111122,1111122' 
DISL,ioos:station:DISL:KATA:1,2015-03-03T15:00:00Z,30.2583,-88.2131,0.0,4.22,109.3,-9999.0,'1111122,1111122,1111122' 
DISL,ioos:station:DISL:KATA:1,2015-03-03T15:30:00Z,30.2583,-88.2131,0.0,5.36,110.9,-9999.0,'1111122,1111122,1111122' 
DISL,ioos:station:DISL:KATA:1,2015-03-03T16:00:00Z,30.2583,-88.2131,0.0,5.93,106.2,-9999.0,'1111122,1111122,1111122' 
DISL,ioos:station:DISL:KATA:1,2015-03-03T16:30:00Z,30.2583,-88.2131,0.0,6.86,112.6,-9999.0,'1111122,1111122,1111122' 
DISL,ioos:station:DISL:KATA:1,2015-03-03T17:00:00Z,30.2583,-88.2131,0.0,7.11,116.2,-9999.0,'1111122,1111122,1111122' 
DISL,ioos:station:DISL:KATA:1,2015-03-03T17:30:00Z,30.2583,-88.2131,0.0,6.9,111.4,-9999.0,'1111122,1111122,1111122' 
DISL,ioos:station:DISL:KATA:1,2015-03-03T18:00:00Z,30.2583,-88.2131,0.0,7.2,118.5,-9999.0,'1111122,1111122,1111122' 
DISL,ioos:station:DISL:KATA:1,2015-03-03T18:30:00Z,30.2583,-88.2131,0.0,7.25,124.3,-9999.0,'1111122,1111122,1111122' 
DISL,ioos:station:DISL:KATA:1,2015-03-03T19:00:00Z,30.2583,-88.2131,0.0,7.64,123.6,-9999.0,'1111122,1111122,1111122' 
DISL,ioos:station:DISL:KATA:1,2015-03-03T19:30:00Z,30.2583,-88.2131,0.0,7.17,120.4,-9999.0,'1111122,1111122,1111122' 
DISL,ioos:station:DISL:KATA:1,2015-03-03T20:00:00Z,30.2583,-88.2131,0.0,6.54,125.1,-9999.0,'1111122,1111122,1111122' 
DISL,ioos:station:DISL:KATA:1,2015-03-03T20:30:00Z,30.2583,-88.2131,0.0,6.38,124.5,-9999.0,'1111122,1111122,1111122' 
DISL,ioos:station:DISL:KATA:1,2015-03-03T21:00:00Z,30.2583,-88.2131,0.0,6.29,127.1,-9999.0,'1111122,1111122,1111122' 
DISL,ioos:station:DISL:KATA:1,2015-03-03T21:30:00Z,30.2583,-88.2131,0.0,7.09,126.9,-9999.0,'1111122,1111122,1111122' 
DISL,ioos:station:DISL:KATA:1,2015-03-03T22:00:00Z,30.2583,-88.2131,0.0,6.88,129.1,-9999.0,'1111122,1111122,1111122' 
DISL,ioos:station:DISL:KATA:1,2015-03-03T22:30:00Z,30.2583,-88.2131,0.0,7.15,130.1,-9999.0,'1111122,1111122,1111122' 
DISL,ioos:station:DISL:KATA:1,2015-03-03T23:00:00Z,30.2583,-88.2131,0.0,6.93,131.6,-9999.0,'1111122,1111122,1111122' 
DISL,ioos:station:DISL:KATA:1,2015-03-03T23:30:00Z,30.2583,-88.2131,0.0,6.83,126.2,-9999.0,'1111122,1111122,1111122' 
DISL,ioos:station:DISL:KATA:1,2015-03-04T00:00:00Z,30.2583,-88.2131,0.0,7.32,127.5,-9999.0,'1111122,1111122,1111122' 
DISL,ioos:station:DISL:KATA:1,2015-03-04T00:30:00Z,30.2583,-88.2131,0.0,7.53,124.3,-9999.0,'1111122,1111122,1111122' 
DISL,ioos:station:DISL:KATA:1,2015-03-04T01:00:00Z,30.2583,-88.2131,0.0,6.91,126.6,-9999.0,'1111122,1111122,1111122' 
DISL,ioos:station:DISL:KATA:1,2015-03-04T01:30:00Z,30.2583,-88.2131,0.0,6.67,127.4,-9999.0,'1111122,1111122,1111122' 
DISL,ioos:station:DISL:KATA:1,2015-03-04T02:00:00Z,30.2583,-88.2131,0.0,6.29,130.9,-9999.0,'1111122,1111122,1111122' 
DISL,ioos:station:DISL:KATA:1,2015-03-04T02:30:00Z,30.2583,-88.2131,0.0,6.25,139.3,-9999.0,'1111122,1111122,1111122' 
DISL,ioos:station:DISL:KATA:1,2015-03-04T03:00:00Z,30.2583,-88.2131,0.0,5.99,139.8,-9999.0,'1111122,1111122,1111122' 
DISL,ioos:station:DISL:KATA:1,2015-03-04T03:30:00Z,30.2583,-88.2131,0.0,5.49,140.3,-9999.0,'1111122,1111122,1111122' 
DISL,ioos:station:DISL:KATA:1,2015-03-04T04:00:00Z,30.2583,-88.2131,0.0,4.61,146.8,-9999.0,'1111122,1111122,1111122' 
DISL,ioos:station:DISL:KATA:1,2015-03-04T04:30:00Z,30.2583,-88.2131,0.0,4.82,145.6,-9999.0,'1111122,1111122,1111122' 
DISL,ioos:station:DISL:KATA:1,2015-03-04T05:00:00Z,30.2583,-88.2131,0.0,5.82,145.0,-9999.0,'1111122,1111122,1111122' 
DISL,ioos:station:DISL:KATA:1,2015-03-04T05:30:00Z,30.2583,-88.2131,0.0,6.83,142.8,-9999.0,'1111122,1111122,1111122' 
DISL,ioos:station:DISL:KATA:1,2015-03-04T06:00:00Z,30.2583,-88.2131,0.0,7.22,145.0,-9999.0,'1111122,1111122,1111122' 
DISL,ioos:station:DISL:KATA:1,2015-03-04T06:30:00Z,30.2583,-88.2131,0.0,6.85,139.4,-9999.0,'1111122,1111122,1111122' 
DISL,ioos:station:DISL:KATA:1,2015-03-04T07:00:00Z,30.2583,-88.2131,0.0,5.1,139.9,-9999.0,'1111122,1111122,1111122' 
DISL,ioos:station:DISL:KATA:1,2015-03-04T07:30:00Z,30.2583,-88.2131,0.0,4.77,135.2,-9999.0,'1111122,1111122,1111122' 
DISL,ioos:station:DISL:KATA:1,2015-03-04T08:00:00Z,30.2583,-88.2131,0.0,4.71,132.5,-9999.0,'1111122,1111122,1111122' 
DISL,ioos:station:DISL:KATA:1,2015-03-04T08:30:00Z,30.2583,-88.2131,0.0,5.17,140.0,-9999.0,'1111122,1111122,1111122' 
DISL,ioos:station:DISL:KATA:1,2015-03-04T09:00:00Z,30.2583,-88.2131,0.0,5.71,139.3,-9999.0,'1111122,1111122,1111122' 
DISL,ioos:station:DISL:KATA:1,2015-03-04T09:30:00Z,30.2583,-88.2131,0.0,5.68,138.8,-9999.0,'1111122,1111122,1111122' 
DISL,ioos:station:DISL:KATA:1,2015-03-04T10:00:00Z,30.2583,-88.2131,0.0,5.54,144.5,-9999.0,'1111122,1111122,1111122' 
DISL,ioos:station:DISL:KATA:1,2015-03-04T10:30:00Z,30.2583,-88.2131,0.0,6.03,140.0,-9999.0,'1111122,1111122,1111122' 
DISL,ioos:station:DISL:KATA:1,2015-03-04T11:00:00Z,30.2583,-88.2131,0.0,5.93,135.3,-9999.0,'1111122,1111122,1111122' 
DISL,ioos:station:DISL:KATA:1,2015-03-04T11:30:00Z,30.2583,-88.2131,0.0,5.15,131.3,-9999.0,'1111122,1111122,1111122' 
DISL,ioos:station:DISL:KATA:1,2015-03-04T12:00:00Z,30.2583,-88.2131,0.0,4.59,138.1,-9999.0,'1111122,1111122,1111122' 
DISL,ioos:station:DISL:KATA:1,2015-03-04T12:30:00Z,30.2583,-88.2131,0.0,4.75,143.0,-9999.0,'1111122,1111122,1111122' 
DISL,ioos:station:DISL:KATA:1,2015-03-04T13:00:00Z,30.2583,-88.2131,0.0,4.31,141.4,-9999.0,'1111122,1111122,1111122' 
DISL,ioos:station:DISL:KATA:1,2015-03-04T13:30:00Z,30.2583,-88.2131,0.0,4.59,142.6,-9999.0,'1111122,1111122,1111122' 
DISL,ioos:station:DISL:KATA:1,2015-03-04T14:00:00Z,30.2583,-88.2131,0.0,4.5,138.9,-9999.0,'1111122,1111122,1111122' 
DISL,ioos:station:DISL:KATA:1,2015-03-04T14:30:00Z,30.2583,-88.2131,0.0,5.69,149.5,-9999.0,'1111122,1111122,1111122' 
DISL,ioos:station:DISL:KATA:1,2015-03-04T15:00:00Z,30.2583,-88.2131,0.0,5.74,154.1,-9999.0,'1111122,1111122,1111122' 
DISL,ioos:station:DISL:KATA:1,2015-03-04T15:30:00Z,30.2583,-88.2131,0.0,6.56,152.9,-9999.0,'1111122,1111122,1111122' 
DISL,ioos:station:DISL:KATA:1,2015-03-04T16:00:00Z,30.2583,-88.2131,0.0,6.2,153.4,-9999.0,'1111122,1111122,1111122' 
DISL,ioos:station:DISL:KATA:1,2015-03-04T16:30:00Z,30.2583,-88.2131,0.0,6.1,163.1,-9999.0,'1111122,1111122,1111122' 
DISL,ioos:station:DISL:KATA:1,2015-03-04T17:00:00Z,30.2583,-88.2131,0.0,7.94,172.2,-9999.0,'1111122,1111122,1111122' 
DISL,ioos:station:DISL:KATA:1,2015-03-04T17:30:00Z,30.2583,-88.2131,0.0,7.18,165.1,-9999.0,'1111122,1111122,1111122' 
DISL,ioos:station:DISL:KATA:1,2015-03-04T18:00:00Z,30.2583,-88.2131,0.0,9.6,159.9,-9999.0,'1111122,1111122,1111122' 
DISL,ioos:station:DISL:KATA:1,2015-03-04T18:30:00Z,30.2583,-88.2131,0.0,8.17,160.8,-9999.0,'1111122,1111122,1111122' 
DISL,ioos:station:DISL:KATA:1,2015-03-04T19:00:00Z,30.2583,-88.2131,0.0,7.03,162.6,-9999.0,'1111122,1111122,1111122' 
DISL,ioos:station:DISL:KATA:1,2015-03-04T19:30:00Z,30.2583,-88.2131,0.0,6.43,159.6,-9999.0,'1111122,1111122,1111122' 
DISL,ioos:station:DISL:KATA:1,2015-03-04T20:00:00Z,30.2583,-88.2131,0.0,6.37,158.0,-9999.0,'1111122,1111122,1111122' 
DISL,ioos:station:DISL:KATA:1,2015-03-04T20:30:00Z,30.2583,-88.2131,0.0,6.09,154.4,-9999.0,'1111122,1111122,1111122' 
DISL,ioos:station:DISL:KATA:1,2015-03-04T21:00:00Z,30.2583,-88.2131,0.0,6.75,158.7,-9999.0,'1111122,1111122,1111122' 
DISL,ioos:station:DISL:KATA:1,2015-03-04T21:30:00Z,30.2583,-88.2131,0.0,7.22,158.7,-9999.0,'1111122,1111122,1111122' 
DISL,ioos:station:DISL:KATA:1,2015-03-04T22:00:00Z,30.2583,-88.2131,0.0,6.07,159.1,-9999.0,'1111122,1111122,1111122' 
DISL,ioos:station:DISL:KATA:1,2015-03-04T22:30:00Z,30.2583,-88.2131,0.0,6.08,160.9,-9999.0,'1111122,1111122,1111122' 
DISL,ioos:station:DISL:KATA:1,2015-03-04T23:00:00Z,30.2583,-88.2131,0.0,5.86,162.0,-9999.0,'1111122,1111122,1111122' 
DISL,ioos:station:DISL:KATA:1,2015-03-04T23:30:00Z,30.2583,-88.2131,0.0,6.6,167.4,-9999.0,'1111122,1111122,1111122' 
DISL,ioos:station:DISL:KATA:1,2015-03-05T00:00:00Z,30.2583,-88.2131,0.0,6.44,166.3,-9999.0,'1111122,1111122,1111122' 
DISL,ioos:station:DISL:KATA:1,2015-03-05T00:30:00Z,30.2583,-88.2131,0.0,6.81,170.3,-9999.0,'1111122,1111122,1111122' 
DISL,ioos:station:DISL:KATA:1,2015-03-05T01:00:00Z,30.2583,-88.2131,0.0,8.06,169.9,-9999.0,'1111122,1111122,1111122' 
DISL,ioos:station:DISL:KATA:1,2015-03-05T01:30:00Z,30.2583,-88.2131,0.0,7.3,166.4,-9999.0,'1111122,1111122,1111122' 
DISL,ioos:station:DISL:KATA:1,2015-03-05T02:00:00Z,30.2583,-88.2131,0.0,6.68,162.6,-9999.0,'1111122,1111122,1111122' 
DISL,ioos:station:DISL:KATA:1,2015-03-05T02:30:00Z,30.2583,-88.2131,0.0,7.32,166.2,-9999.0,'1111122,1111122,1111122' 
DISL,ioos:station:DISL:KATA:1,2015-03-05T03:00:00Z,30.2583,-88.2131,0.0,8.77,177.7,-9999.0,'1111122,1111122,1111122' 
DISL,ioos:station:DISL:KATA:1,2015-03-05T03:30:00Z,30.2583,-88.2131,0.0,8.14,193.2,-9999.0,'1111122,1111122,1111122' 
DISL,ioos:station:DISL:KATA:1,2015-03-05T04:00:00Z,30.2583,-88.2131,0.0,6.8,194.0,-9999.0,'1111122,1111122,1111122' 
DISL,ioos:station:DISL:KATA:1,2015-03-05T04:30:00Z,30.2583,-88.2131,0.0,6.51,196.8,-9999.0,'1111122,1111122,1111122' 